Location: Hylvaty SDH
(49.9612°N, 16.4057°E)
Time: 19:54:49
(UTC+02:00)

Transit 4A - Pass Details

Date: 18 August 2020
Orbit: 862 x 982 km, 66.8° (Epoch: 28 September)

Event Time Altitude Azimuth Distance (km) Brightness Sun altitude
Rises 14:05:51 0° 316° (NW) 3,622 10.9 50.4°
Reaches altitude 10° 14:09:04 10° 332° (NNW) 2,695 10.2 50.1°
Maximum altitude 14:13:48 22° 21° (NNE) 2,006 9.5 49.8°
Drops below altitude 10° 14:18:35 10° 70° (ENE) 2,732 10.1 49.4°
Sets 14:21:51 0° 85° (E) 3,684 10.8 49.1°
